Regional Weather Roundup
Issued by NWS Austin/San Antonio, TX

Home | Current Version | Previous Version | Text Only | Print | Product List | Glossary On
Versions: 1 2 3 4 5 6 7 8 9 10 11 12 13 14 15 16 17 18 19 20 21 22 23 24 25 26 27 28 29 30 31 32 33 34 35 36 37 38 39 40 41 42 43 44 45 46 47 48 49 50
000
ASUS44 KEWX 201910
RWREWX
SOUTH TEXAS REGIONAL WEATHER ROUNDUP
NATIONAL WEATHER SERVICE AUSTIN/SAN ANTONIO TX
100 PM CST TUE NOV 20 2018

NOTE: "FAIR" INDICATED FEW OR NO CLOUDS BELOW 12,000 FEET WITH NO
SIGNIFICANT WEATHER AND/OR OBSTRUCTIONS TO VISIBILITY.

* - THESE STATIONS ARE NOT NWS OR FAA STATIONS...AND ARE NOT SUBJECT
    TO NWS AND FAA QUALITY CONTROL.

TXZ171-172-183>190-202000-
TEXAS HILL COUNTRY AND EDWARDS PLATEAU

CITY           SKY/WX    TMP DP  RH WIND       PRES   REMARKS
JUNCTION       SUNNY     57  35  43 MISG      30.34F
*LLANO         SUNNY     64  36  34 CALM      30.37F
BURNET         SUNNY     59  34  39 N10       30.35F
*HORSESHOE BAY SUNNY     58  35  40 N6        30.34F
*KERRVILLE     CLOUDY    58  32  36 NE8       30.33F
*FREDERICKSBRG SUNNY     55  33  42 NE7       30.33F
*ROCKSPRINGS   SUNNY     55  32  41 SE5       30.37F
*BOERNE STAGE  SUNNY     55  32  41 NE6       30.33F
*CASTROVILLE   SUNNY     62  33  32 NE8       30.34F
HONDO          CLOUDY    65  37  35 NE10      30.32F
*UVALDE        CLOUDY    61  38  42 NE6       30.33F
DEL RIO        SUNNY     61  45  55 S5        30.31F
LAUGHLIN AFB   PTSUNNY   61  43  53 CALM      30.31F
CARRIZO SPRGS  CLOUDY    61  37  41 E6        30.31F
*EAGLE PASS    CLOUDY    50  32  50 CALM      30.32F
*FAITH RANCH   MOSUNNY   61  43  51 MISG      30.31F
$$

TXZ173-191>194-202-209-217>225-228-202000-
CENTRAL AND SOUTH CENTRAL TEXAS

CITY           SKY/WX    TMP DP  RH WIND       PRES   REMARKS
GEORGETOWN     SUNNY     59  38  45 N13       30.34F
AUSTIN/BERGSTM MOSUNNY   61  37  41 NE7       30.32F
AUSTIN/MABRY   SUNNY     61  35  37 VRB7      30.33F
*LAGO VISTA    SUNNY     59  37  42 N7        30.33F
SAN MARCOS     SUNNY     61  39  44 N16       30.33F
NEW BRAUNFELS  SUNNY     61  36  39 NE14      30.31F
RANDOLPH AFB   SUNNY     59  36  42 NE7       30.31F
PT SAN ANTONIO SUNNY     61  37  40 N10       30.29F
SAN ANTONIO    PTSUNNY   60  36  40 MISG      30.32F
STINSON FIELD  MOSUNNY   63  33  32 N10       30.30F
*LA GRANGE     SUNNY    N/A N/A N/A N8        30.30F
*GIDDINGS      SUNNY     58  37  43 N5        30.32F
*GONZALES      SUNNY     60  39  46 N8        30.30F
$$

TXZ163>164-176>182-195>201-210>213-226-227-235-202000-
SOUTHEAST TEXAS

CITY           SKY/WX    TMP DP  RH WIND       PRES   REMARKS
COLLEGE STN    SUNNY     59  41  51 NE13      30.32F
*BRYAN         SUNNY     58  38  48 N6        30.34F
*CALDWELL      SUNNY     59  37  44 NE7       30.33F
*CROCKETT        N/A     57  39  51 NE7       30.34F
*BRENHAM       SUNNY     60  40  49 N8G16     30.31F
HUNTSVILLE     SUNNY     56  39  53 MISG      30.31F
CONROE         SUNNY     58  41  53 N7        30.30F
HOUSTON BUSH   MOSUNNY   62  43  49 N12G18    30.28F
HOUSTON HOBBY  FAIR      61  40  45 NE13      30.27F
*HOUSTON SW AP FAIR      61  41  47 N9        30.28F
PEARLAND       FAIR      61  41  47 N13G20    30.28F
HOUSTON HOOKS  FAIR      59  40  49 NE10G16   30.29F
ELLINGTON FLD  MOSUNNY   59  41  51 N12       30.30F
SUGAR LAND     FAIR      62  41  46 N14       30.27F
*HOUSTON EXEC  FAIR      61  41  48 N14       30.30F
*CLEVELAND MUN FAIR      59  39  46 NE5       30.30F
*WHARTON       SUNNY     60  36  40 N10       30.29F
*COLUMBUS      FAIR      59  35  40 NE9       30.30F
*EAGLE LAKE    CLEAR     61  41  47 N8G20     30.28
$$

TXZ214>216-236>238-202000-
THE UPPER TEXAS COAST

CITY           SKY/WX    TMP DP  RH WIND       PRES   REMARKS
*ORANGE          N/A     61  45  56 N7        30.27F
PORT ARTHUR    FAIR      63  42  46 N12       30.25F
GALVESTON      FAIR      59  47  64 N15       30.28F
ANGLETON       FAIR      61  43  51 N12G20    30.27F
*BAY CITY      SUNNY     62  44  53 N13       30.27F
PALACIOS       SUNNY     62  45  53 N13       30.27F
$$

TXZ229>234-239>247-202000-
TEXAS COASTAL BEND AND RIO GRANDE PLAINS

CITY           SKY/WX    TMP DP  RH WIND       PRES   REMARKS
VICTORIA       SUNNY     62  39  42 N13G20    30.29F
*BEEVILLE      SUNNY     65  36  34 N7        30.30F
ROCKPORT       CLOUDY    59  43  55 N10       30.28F
*PORT ARANSAS  CLOUDY    57  44  60 N16       30.30F
*PORT LAVACA   NOT AVBL
*INGLESIDE     CLOUDY    59  43  56 NE10      30.28F
CORPUS CHRISTI CLOUDY    58  42  55 N14       30.29F
CORPUS NAS     CLOUDY    61  45  55 N9        30.29F
*ROBSTOWN      CLOUDY    56  42  59 N9        30.31F
ALICE          CLOUDY    58  40  51 N9        30.30F
KINGSVILLE NAS CLOUDY    58  42  55 N10       30.30F
COTULLA        MOSUNNY   62  39  42 N7        30.32F
LAREDO         CLOUDY    61  43  51 N8        30.31F
$$

TXZ248>255-202000-
DEEP SOUTH TEXAS

CITY           SKY/WX    TMP DP  RH WIND       PRES   REMARKS
BROWNSVILLE    CLOUDY    58  51  78 NW15G22   30.25F
PORT ISABEL    CLOUDY    59  50  72 NW16      30.24F
HARLINGEN      CLOUDY    58  47  66 N14       30.27F
*HEBBRONVILLE  CLOUDY    56  38  52 CALM      30.31F
MCALLEN        CLOUDY    59  46  62 NW10      30.30F
*WESLACO       CLOUDY    54  44  68 N10       30.28F
FALFURRIAS     CLOUDY    58  40  51 N10       30.29F
EDINBURG       CLOUDY    59  45  60 N10       30.29F
*ZAPATA        CLOUDY    58  41  53 N5        30.31F
$$

TXZ213>215-236>238-242>244-246-247-251-254-255-202000-
CMAN STATIONS

STATION/POSITION TIME  TEMP    WIND        PRES    WAVE
                       AIR SEA DIR/SP/G            HT/PER
                 (UTC) (F)     (DEG/KT/KT) (MB)    (FT/S)
SABINE PASS      1842   57 62   10/ 15/ 19 1026.2
SEA RIM ST PARK  1900   59      40/  9/ 11 1024.6
NORTH JETTY/GLS  1842   56 58   40/ 13/ 15 1024.3
EAGLE POINT      1842   55 56   50/ 10/ 12 1025.3
MORGANS POINT    1842   58 59  350/ 10/ 13 1024.9
PORT O`CONNOR    1842   55 58   20/ 12/ 12 1025.1
PORT ARANSAS     1900   56 61  350/ 15/ 17 1025.3
MALAQUITE BEACH  1842   59 62  330/ 11/ 15 1025.5
BAFFIN BAY       1842   55 58   10/ 10/ 12 1026.0
PORT ISABEL      1842   56 65  330/ 17/ 21 1023.5
$$



USA.gov is the U.S. government's official web portal to all federal, state and local government web resources and services.